RH
61 57 49 44 43 42 37 41 53 57 55 53 51 54 56 59 74 81 73 73 67 47 44 48 39 31 30 29 29 33 39 41 43 44 44 45 45 46 47 47 48 49 49 51 53 54 54 56 57 56 57 57 56 58 60 65 74 81 86 90 92 97 99 97 99 100 98 97 97 97 99 97 92 91
60 61 58 50 48 51 49 45 48 50 49 49 46 48 50 50 59 66 66 69 63 49 46 46 40 35 31 32 35 37 41 42 42 43 42 43 43 43 42 42 43 44 46 47 46 46 46 47 49 51 52 54 54 55 56 58 62 70 79 84 86 91 95 97 97 98 97 96 97 97 98 97 92 89
55 60 61 56 51 52 53 48 46 46 45 46 45 45 47 46 49 52 57 63 58 49 47 42 40 40 36 36 37 36 37 38 36 38 40 42 43 44 43 42 42 42 42 43 43 43 44 44 45 48 48 48 47 48 50 53 54 60 68 74 78 83 88 92 95 95 96 97 99 98 98 99 97 93
52 58 60 58 50 47 53 52 48 48 47 47 47 47 49 50 51 51 51 59 57 46 43 42 41 43 39 36 35 33 32 31 32 36 41 44 44 45 45 44 43 43 42 43 44 43 43 43 43 44 44 43 42 43 44 46 47 51 58 61 66 73 78 84 89 93 95 97 99 99 99 100 98 98
49 53 55 55 49 44 49 50 48 47 46 45 45 48 52 49 50 52 50 54 54 43 41 43 41 39 37 33 32 34 33 33 36 38 40 42 43 44 45 44 43 43 42 42 43 44 44 44 43 43 44 44 42 41 43 45 45 47 53 59 65 70 73 76 81 86 92 94 96 99 98 99 99 99
50 50 52 56 54 48 44 42 44 46 44 46 46 45 47 46 45 50 49 50 52 48 43 42 40 38 37 34 33 35 37 39 41 40 40 40 41 41 41 42 42 43 44 43 43 45 45 45 46 46 49 50 47 44 43 46 48 49 52 60 68 72 72 71 71 74 81 87 91 95 96 98 100 101
57 52 52 56 57 54 48 40 39 45 46 48 48 46 45 45 45 47 48 48 52 53 49 44 43 42 39 38 37 36 39 43 43 42 42 42 42 43 42 42 44 45 47 47 47 48 48 49 49 49 50 50 49 47 46 46 49 52 56 62 70 76 76 74 70 68 70 76 81 87 91 96 98 99
59 56 52 51 51 53 54 47 39 43 48 49 50 49 46 44 45 46 46 47 49 51 51 46 44 43 40 38 37 39 41 43 43 43 43 43 43 44 44 44 45 46 47 47 47 47 48 48 48 48 48 45 44 44 44 44 45 47 52 59 67 74 77 76 73 70 67 67 68 71 76 84 93 99
56 57 55 52 49 49 52 51 44 42 48 52 51 51 48 43 40 39 39 42 44 44 43 42 39 35 33 33 35 41 43 40 41 42 41 42 43 42 43 43 43 45 45 45 45 45 45 46 46 45 43 42 42 44 45 46 47 45 45 48 52 56 60 64 67 67 66 65 64 64 65 68 76 89
54 55 57 56 52 48 48 51 51 48 49 52 52 52 49 40 31 28 27 29 30 30 30 34 34 29 28 31 31 32 33 33 36 38 35 34 36 38 40 39 39 41 44 47 48 48 47 46 46 45 43 43 46 49 51 52 52 51 50 49 49 49 51 55 61 66 70 73 74 73 71 68 68 74
56 55 56 58 56 53 51 51 52 51 49 50 51 50 46 38 32 29 25 20 19 20 22 27 33 31 30 34 34 31 30 31 34 40 42 39 36 38 41 39 38 39 42 46 50 53 54 52 49 48 48 50 52 53 53 53 52 52 51 51 52 52 53 54 56 59 62 67 73 77 78 76 74 73
58 56 56 58 57 56 55 52 51 51 48 47 48 48 45 42 38 33 28 26 28 31 34 37 42 43 42 43 45 44 44 45 46 52 58 57 53 52 50 46 44 45 44 45 47 50 54 55 54 54 53 53 53 52 52 51 50 49 48 48 49 50 51 51 51 50 51 53 57 65 73 76 75 75
60 58 57 58 57 56 55 51 50 50 47 45 45 46 47 44 40 36 36 41 46 49 51 52 54 56 57 58 59 59 60 62 64 64 65 65 65 66 62 52 50 55 52 48 46 45 45 47 48 49 51 52 52 52 52 51 51 50 46 43 45 47 45 43 41 40 40 42 45 50 57 67 73 75
61 60 58 57 57 56 54 52 51 49 46 45 43 44 47 44 40 41 47 52 55 56 57 59 60 63 64 65 66 68 68 68 69 69 70 71 72 75 73 63 57 60 61 60 59 54 49 49 46 41 40 41 41 42 43 44 45 46 44 43 44 42 38 33 31 31 32 34 39 45 48 52 63 71
62 60 59 58 57 57 55 54 53 49 46 46 45 45 46 43 40 45 53 55 55 57 59 60 63 66 68 67 67 68 70 71 73 74 74 77 78 79 83 79 69 66 67 71 72 66 61 61 58 52 47 43 40 39 40 40 39 41 42 42 39 36 33 33 35 37 38 37 39 44 47 46 50 61
63 60 58 57 57 56 55 54 53 50 48 48 48 48 45 42 43 49 54 56 58 60 62 64 65 66 67 67 67 70 75 77 79 80 80 83 86 85 87 87 81 76 75 76 74 68 64 63 62 61 58 55 52 51 52 52 51 51 50 47 45 44 44 45 46 47 47 46 46 46 47 46 46 50
66 61 58 57 56 55 55 53 51 50 49 49 49 48 45 43 45 49 54 58 60 59 58 60 60 60 65 71 71 73 79 82 82 83 83 84 87 87 88 87 84 79 77 74 71 69 65 61 62 62 59 57 57 60 62 61 59 56 54 53 55 55 53 52 51 50 50 49 49 48 47 47 47 47
69 63 57 56 55 55 55 53 52 51 51 51 49 46 45 45 47 51 55 57 56 52 51 54 55 57 64 72 72 71 76 79 79 79 80 79 80 81 81 80 78 76 73 71 71 71 67 63 64 65 60 57 61 65 65 62 59 58 59 62 64 61 57 54 51 50 50 49 49 50 49 48 48 47
73 64 58 58 60 59 57 53 52 52 51 50 48 46 47 50 53 55 56 55 54 54 54 56 58 60 64 67 69 70 71 73 73 72 73 73 72 71 72 73 73 73 71 70 72 73 70 67 68 68 63 61 65 67 64 61 62 64 65 64 64 65 64 61 59 56 53 50 49 49 49 49 49 49
72 64 61 62 61 59 55 53 53 54 53 53 52 51 52 55 57 57 56 57 58 60 61 62 63 66 67 68 70 70 70 70 69 67 67 68 68 70 74 75 73 71 71 73 74 74 74 72 70 69 67 66 68 67 64 64 64 65 64 58 59 74 84 82 80 78 72 66 61 55 52 51 51 54
66 62 61 60 57 56 55 54 55 55 54 55 56 57 58 59 59 58 59 61 63 65 66 67 68 68 69 69 68 67 66 64 62 63 67 68 69 74 79 78 74 73 73 73 73 75 77 75 72 71 69 68 68 67 66 65 63 63 62 57 62 83 95 95 95 94 91 90 86 79 73 70 71 75
59 59 59 58 58 59 58 56 56 55 56 58 61 61 61 60 59 59 60 61 62 62 61 61 62 62 62 63 62 61 61 60 59 63 67 69 72 79 84 83 80 80 77 71 71 76 80 77 73 72 70 69 69 69 68 67 65 64 63 60 66 78 83 87 96 97 92 92 93 92 91 91 94 96
60 60 61 60 61 61 59 57 57 58 59 60 61 60 60 59 59 58 58 57 57 57 58 58 60 61 63 64 66 66 67 66 66 67 68 69 73 80 85 86 89 91 85 76 74 79 80 76 74 74 74 76 75 70 69 69 66 64 64 63 66 68 68 76 88 91 89 87 84 83 86 89 93 96
55 54 53 52 52 51 50 49 50 52 55 57 59 59 58 56 56 57 57 58 59 62 63 65 67 69 69 70 72 73 73 72 71 70 69 69 71 76 80 84 89 92 88 79 76 79 81 80 79 77 77 80 80 74 71 70 68 64 64 66 67 65 69 76 78 78 84 84 77 73 76 78 82 86
47 44 43 45 46 45 45 46 50 55 58 60 58 57 55 54 57 60 61 63 65 67 69 71 72 72 72 72 73 73 72 73 72 72 72 72 73 75 78 81 85 87 85 79 76 78 81 82 81 80 78 79 79 77 74 73 71 68 66 69 70 69 73 77 71 70 78 80 74 72 72 71 73 78
44 43 44 46 48 51 53 57 61 62 61 58 55 55 56 58 62 65 67 68 69 70 71 72 71 71 71 72 72 70 70 72 73 74 74 74 75 76 77 79 83 84 82 79 77 77 79 80 80 81 81 81 80 79 79 78 77 74 72 72 71 70 71 70 66 71 78 77 74 75 74 70 71 75
43 47 51 53 56 60 62 62 62 59 57 56 55 57 61 64 67 69 69 68 68 68 68 68 68 68 69 70 71 71 72 74 75 76 77 77 78 79 79 80 82 82 82 81 80 81 81 81 81 79 80 82 84 84 84 82 80 77 75 74 73 71 69 67 69 75 78 73 73 77 77 74 74 76
47 54 59 60 61 61 60 59 58 58 59 60 61 63 65 68 69 68 66 66 66 67 68 69 69 69 68 69 71 71 72 74 76 77 78 78 80 82 83 84 84 84 84 83 83 84 85 84 83 81 79 82 85 86 85 82 80 78 76 75 75 73 71 70 73 76 76 75 79 83 81 78 78 81
57 59 59 58 58 58 58 58 58 59 60 62 63 65 67 67 65 64 64 65 67 70 72 73 74 74 73 73 74 73 74 76 79 80 79 79 80 82 84 86 87 86 86 85 83 83 85 86 86 84 82 82 83 83 83 81 79 77 76 76 77 76 75 76 78 79 80 82 85 86 85 83 84 90
55 53 53 54 56 58 59 59 59 60 61 63 64 65 66 67 67 68 69 71 73 75 77 78 79 80 80 80 81 81 82 83 83 83 83 84 84 84 86 88 89 88 87 85 81 79 80 83 86 87 86 85 84 83 82 81 81 80 79 80 82 82 81 82 84 85 86 88 88 88 88 88 89 94
48 49 53 57 58 59 60 61 62 64 66 66 67 68 70 72 74 75 76 77 79 80 81 82 84 85 85 86 87 88 89 89 88 88 88 88 88 87 88 90 92 91 87 84 83 82 82 83 85 87 88 88 87 86 84 84 85 85 83 83 85 86 84 81 80 78 78 84 91 95 94 91 92 96
52 56 59 60 61 61 61 63 65 67 68 68 68 68 69 70 72 74 76 77 79 81 84 87 88 88 89 91 92 93 94 94 93 92 91 92 92 90 91 94 95 94 91 89 87 86 86 85 84 85 87 89 89 89 88 88 89 89 88 86 85 84 81 78 75 73 75 83 92 97 97 94 95 98
59 60 61 62 63 64 65 67 69 69 68 68 68 69 70 72 74 76 78 81 83 85 89 92 93 94 95 96 97 98 98 97 96 95 95 95 94 93 94 97 97 95 95 94 91 89 89 88 87 87 87 88 89 90 92 94 93 90 88 86 85 82 79 76 75 76 82 91 97 98 97 96 96 98
61 62 63 65 66 67 69 70 70 69 70 71 72 74 76 77 79 80 82 84 87 91 95 97 98 99 99 100 100 100 100 99 98 98 97 96 96 97 98 99 99 98 98 97 95 93 92 92 92 91 90 90 90 89 90 93 93 90 88 87 86 84 80 77 77 80 86 94 100 99 97 96 97 98
63 64 65 67 69 69 70 72 71 72 74 76 80 83 83 83 85 88 90 92 94 97 99 99 100 100 100 100 100 100 100 100 100 99 99 98 98 99 100 100 100 99 100 100 98 96 95 95 95 96 95 95 94 91 87 87 89 91 90 88 85 83 80 79 82 86 89 93 99 100 98 98 99 98
65 67 67 70 72 71 72 74 75 76 77 78 81 86 88 90 92 94 97 98 99 100 100 100 100 100 100 100 100 100 100 100 100 100 100 100 100 100 100 100 100 99 100 100 98 96 96 96 97 99 99 98 98 95 88 83 83 85 87 85 82 80 81 85 91 94 93 94 99 100 98 97 97 97
68 70 71 73 74 73 73 75 75 75 75 77 80 85 90 95 97 97 99 100 100 100 100 100 100 100 100 100 100 100 100 100 100 100 100 100 100 100 100 100 100 100 100 99 97 96 97 97 98 100 99 97 97 95 89 83 82 83 84 84 82 79 81 88 96 99 98 98 100 100 97 96 95 96
70 73 74 75 75 74 73 73 74 74 75 79 84 89 93 98 100 100 100 100 100 100 100 100 100 100 100 100 100 100 100 100 100 100 100 100 100 100 100 100 100 99 99 99 97 97 97 98 99 100 99 98 97 95 91 87 86 86 87 88 88 87 89 94 99 101 100 100 100 100 98 96 96 97
74 76 77 76 75 74 73 73 76 79 82 88 93 95 98 100 100 100 100 100 100 100 100 100 100 100 100 100 100 100 100 100 100 100 100 100 100 100 100 100 100 99 100 100 99 98 99 100 100 100 100 99 96 92 90 90 89 89 90 93 95 95 94 97 100 100 100 100 100 100 99 98 99 99
78 79 78 76 75 74 75 77 81 84 87 90 92 94 98 100 100 100 100 100 100 100 100 100 100 100 100 100 100 100 100 100 100 100 100 100 100 100 100 100 100 100 100 100 99 99 99 99 97 95 96 95 91 88 91 94 95 94 92 91 91 89 88 92 97 100 100 100 100 100 100 100 100 100
78 79 78 76 75 75 77 80 82 81 82 84 88 93 98 100 100 100 100 100 100 100 100 100 100 100 100 100 100 100 100 100 100 100 100 100 100 100 100 100 100 100 100 100 100 100 98 95 93 93 95 96 95 95 97 99 98 95 91 88 89 90 89 92 97 99 99 99 99 100 101 100 100 100
79 79 78 76 76 78 79 78 76 75 77 79 83 89 95 99 100 100 100 100 100 100 100 100 100 100 100 100 100 100 100 100 100 100 100 100 100 100 100 100 100 100 100 100 100 98 95 93 95 97 99 100 99 100 100 99 96 95 93 93 95 95 94 95 98 100 99 96 95 96 97 98 100 101
80 78 77 77 77 77 75 71 70 73 75 77 79 83 91 98 100 100 100 100 100 100 100 100 100 100 100 100 100 100 100 100 100 100 100 100 100 100 100 100 100 100 100 100 99 98 96 96 99 100 100 100 100 100 100 98 96 97 98 99 99 99 98 98 100 100 100 98 93 89 88 89 91 94
77 76 77 78 77 75 72 70 73 76 76 75 76 79 86 94 100 100 100 100 100 100 100 100 100 100 100 100 100 100 100 100 100 100 100 100 100 100 100 100 100 100 100 100 100 99 99 99 100 100 100 100 100 100 100 99 98 98 99 100 100 100 100 100 100 100 100 100 98 93 89 86 86 86
75 76 78 79 78 75 73 75 79 79 75 74 74 75 80 90 98 100 100 100 100 100 100 100 100 100 100 100 100 100 100 100 100 100 100 100 100 100 100 100 100 100 100 100 100 100 100 100 100 100 100 100 100 100 100 100 99 100 100 100 100 100 100 100 100 100 100 100 99 98 96 93 91 89
Wind_Speed
6 5 5 5 6 7 6 5 5 4 4 6 7 8 8 6 3 1 3 3 2 8 12 9 11 15 15 12 10 9 9 9 8 6 6 6 7 7 8 9 9 10 10 10 10 11 12 13 13 14 14 14 15 15 16 16 18 20 22 26 29 31 32 32 30 28 26 25 25 25 25 26 25 25
4 4 4 5 7 8 8 8 7 6 5 4 5 6 6 7 5 4 1 1 1 5 10 10 12 16 15 13 10 9 8 8 8 7 7 7 8 9 10 10 10 10 11 11 12 12 12 13 14 15 15 16 17 17 18 17 17 18 19 21 24 28 31 32 32 32 30 29 28 28 28 28 27 26
2 3 3 3 4 5 5 7 7 7 7 6 6 6 5 6 7 5 3 1 2 6 9 11 14 15 14 13 12 11 10 10 10 9 8 7 8 10 11 11 11 10 11 12 12 12 12 13 14 14 15 16 16 17 18 18 18 18 18 19 20 23 26 28 31 34 34 34 33 32 32 31 30 29
2 3 2 1 2 2 2 4 4 4 4 5 5 4 5 6 6 6 4 1 5 8 9 12 14 14 15 15 15 16 15 13 13 11 10 10 10 11 12 12 11 12 12 12 12 12 12 13 14 15 16 16 17 16 16 17 18 18 18 18 19 19 20 23 26 29 32 35 36 35 35 35 34 32
2 4 3 0 1 1 1 1 2 3 3 4 5 4 4 6 5 6 6 4 7 10 11 13 15 16 17 17 18 19 19 17 16 14 13 12 13 14 14 14 13 13 13 13 13 13 13 14 15 16 17 17 17 17 16 16 16 17 17 17 18 18 18 19 21 23 26 28 30 32 34 36 37 36
4 4 5 3 2 2 2 1 2 2 2 4 5 5 4 6 7 7 8 7 7 12 15 16 17 18 19 19 19 20 21 20 19 17 16 16 16 16 16 15 15 14 15 15 14 14 14 14 15 15 15 15 15 15 15 15 14 15 17 18 17 17 17 17 18 20 21 23 24 26 29 32 35 36
8 7 6 6 5 5 3 2 2 1 1 3 4 4 4 6 7 8 10 10 8 11 15 17 18 19 19 19 20 20 19 19 19 19 18 17 17 16 16 16 14 14 15 15 15 14 14 13 13 14 15 16 16 16 15 15 15 14 15 17 18 18 19 19 19 20 21 21 22 23 24 26 29 33
12 11 9 8 7 7 5 3 3 2 2 3 3 3 4 5 7 8 9 10 9 10 13 17 18 18 19 19 19 18 18 18 18 18 18 18 17 16 15 15 15 14 14 14 14 14 15 15 16 16 18 18 18 18 17 16 16 15 14 15 17 18 20 21 21 22 22 22 23 24 24 25 26 28
15 14 13 11 9 9 8 6 5 4 3 5 5 5 7 7 8 9 10 11 11 12 14 17 19 19 19 19 18 17 19 20 20 20 18 17 18 18 16 15 16 17 16 16 16 16 16 17 18 19 20 20 18 17 17 17 16 16 15 15 15 17 19 21 22 23 24 24 24 24 25 25 26 27
17 17 16 14 12 12 10 8 7 6 6 6 6 7 8 9 10 11 12 13 13 14 15 15 17 19 20 20 20 20 21 21 21 22 22 20 19 21 22 20 20 20 20 18 17 17 17 18 19 19 20 18 16 15 15 15 15 14 14 14 14 15 17 19 22 24 26 27 28 28 27 27 26 27
18 18 17 17 15 14 13 11 9 8 8 8 7 8 8 8 10 13 14 14 14 14 15 15 16 18 20 20 20 21 21 20 20 23 25 25 25 26 26 25 25 23 22 20 18 16 15 15 15 15 14 13 12 13 14 15 15 16 15 15 14 14 15 16 18 19 21 23 25 27 29 29 29 28
21 19 19 18 18 17 16 13 11 10 9 8 8 8 8 8 11 13 12 13 13 13 14 15 15 18 20 20 21 23 23 22 22 24 24 25 28 29 29 28 25 23 22 22 20 19 18 17 16 14 13 12 13 14 15 17 18 20 20 20 19 19 19 19 19 19 20 20 20 22 24 27 29 29
25 22 20 20 19 19 18 16 14 12 10 9 9 9 8 9 11 12 11 11 11 12 14 15 16 18 20 21 22 23 23 21 23 25 23 23 26 30 31 30 24 19 21 23 23 23 23 23 23 22 21 20 19 20 20 21 23 23 24 25 24 24 24 25 25 25 24 23 22 21 21 21 24 26
26 24 23 22 21 21 20 19 17 15 11 10 10 10 10 11 11 11 10 10 10 11 13 14 15 16 19 21 21 22 23 23 24 25 24 24 27 28 28 29 26 21 21 25 28 28 27 27 27 28 27 27 27 27 27 27 28 28 27 27 28 29 30 30 29 29 27 25 24 23 22 21 21 22
27 26 24 23 23 23 22 20 17 14 11 10 10 10 10 11 11 10 9 10 11 12 12 14 15 15 18 21 22 22 23 23 22 23 24 25 26 24 20 20 24 25 25 28 32 33 31 28 27 28 28 27 27 27 27 27 27 26 26 27 29 30 30 28 27 26 26 25 24 24 23 23 21 21
26 26 25 24 25 25 23 20 16 12 10 10 9 9 9 10 10 10 10 11 11 11 12 14 16 16 17 20 21 20 20 21 21 23 24 23 22 22 20 19 23 27 29 30 32 35 34 29 26 27 26 25 25 24 22 21 20 21 22 23 24 25 25 25 24 24 24 24 24 24 24 24 23 22
24 26 27 26 26 23 20 17 13 11 11 10 10 10 10 11 11 12 12 11 11 11 12 14 16 17 17 17 19 18 18 19 21 22 23 22 21 21 21 23 27 31 32 30 29 31 32 29 26 26 27 27 25 21 18 18 19 20 21 22 23 24 25 25 25 25 24 24 23 23 24 24 23 23
23 26 27 26 23 19 16 14 13 12 12 11 11 11 12 12 12 12 11 11 11 12 13 14 16 16 16 16 18 18 17 17 18 19 21 22 22 23 25 27 29 31 30 28 24 24 27 27 25 26 29 29 25 20 19 19 18 17 18 19 21 23 24 25 25 25 24 23 22 22 23 23 23 22
23 25 25 23 19 17 15 14 13 13 12 12 12 12 12 11 11 10 10 11 12 13 14 15 15 16 17 17 18 18 18 18 18 20 22 23 25 28 30 30 30 29 27 24 20 20 23 24 26 27 27 25 24 21 18 15 12 12 14 17 19 20 21 22 22 22 22 21 21 21 22 23 22 22
20 21 20 18 17 16 14 12 11 11 11 11 11 11 11 10 10 9 10 11 12 13 14 14 15 15 17 18 18 19 21 23 24 26 27 27 27 27 26 27 27 27 25 21 18 20 23 23 25 27 25 23 23 20 15 12 11 13 16 19 21 20 19 18 18 18 18 17 18 19 20 21 21 21
15 15 14 15 15 13 11 9 10 10 10 11 11 10 9 9 9 10 11 12 12 13 14 15 16 18 19 21 23 24 25 27 27 27 27 25 24 23 20 20 22 24 24 22 20 22 24 21 21 23 24 23 21 18 14 12 13 16 20 23 22 20 20 21 20 19 17 16 15 14 15 16 16 16
14 13 12 11 11 9 9 10 11 11 11 11 10 9 8 9 11 12 13 14 15 16 17 18 19 20 20 21 22 22 21 20 19 19 20 20 20 20 17 17 21 22 22 19 16 19 21 17 17 21 22 22 20 16 13 12 14 19 23 24 21 19 19 21 20 18 17 17 16 15 14 13 12 12
11 10 9 7 7 7 8 9 9 9 9 8 7 7 8 10 12 13 14 15 16 16 17 16 16 16 16 16 16 16 14 13 12 13 15 16 18 20 19 19 18 14 12 11 12 16 20 19 19 20 16 13 12 11 12 15 20 24 24 23 20 19 19 20 19 19 18 17 16 15 14 13 13 12
10 8 7 6 5 5 5 5 6 5 5 5 6 8 10 12 12 12 12 12 12 13 14 14 15 16 15 15 15 15 14 14 13 14 15 16 18 20 21 21 17 14 15 16 16 19 22 20 20 19 15 11 10 12 17 20 22 24 24 22 20 19 18 18 17 18 19 18 16 15 14 13 13 13
10 9 7 6 5 4 4 3 3 4 5 7 9 11 11 11 10 10 11 11 11 13 14 15 16 16 16 15 15 16 16 17 16 17 18 18 20 21 23 23 21 20 21 19 15 18 22 20 18 19 17 16 16 17 19 20 20 22 22 19 18 17 17 18 19 19 19 19 18 17 15 14 13 12
7 6 5 5 4 3 3 3 5 7 9 10 10 9 8 7 7 9 10 11 12 13 14 15 16 16 16 17 17 17 18 18 18 19 19 20 21 22 24 25 25 25 25 22 19 21 23 21 19 18 17 17 17 17 17 17 18 20 19 16 17 17 18 20 20 18 18 19 19 18 16 15 14 12
6 6 5 4 3 2 4 5 7 8 8 8 6 5 5 6 8 9 9 10 11 12 13 14 16 17 17 18 18 18 19 19 18 19 20 21 22 24 25 27 28 28 29 28 26 25 24 23 22 20 20 19 17 15 14 15 16 18 18 18 18 18 18 20 19 17 17 19 19 18 16 15 15 13
6 5 3 1 1 3 4 5 5 5 5 5 5 5 6 6 7 8 9 10 11 13 14 16 17 18 19 19 20 20 20 20 20 20 21 22 23 25 26 27 28 28 28 28 27 25 25 25 24 22 22 21 19 15 13 14 15 17 20 20 19 19 19 19 18 17 18 19 19 17 16 16 15 13
3 2 1 2 2 1 2 2 2 3 4 4 5 5 5 7 8 9 11 12 13 14 16 17 19 20 20 20 21 21 21 22 22 23 23 23 22 23 25 26 27 27 26 26 26 25 25 25 24 23 23 22 21 19 17 17 16 17 20 21 20 19 19 17 16 16 16 17 19 18 17 17 15 12
2 2 2 2 3 3 2 2 3 4 4 5 5 6 7 9 10 12 13 14 14 16 17 18 20 20 21 21 22 22 23 23 24 24 24 23 22 22 23 25 26 26 26 26 26 27 27 26 25 24 23 23 22 21 20 18 17 17 19 19 18 16 15 13 14 14 16 18 20 19 18 17 14 11
3 4 5 6 5 4 4 4 4 4 5 6 7 8 9 10 11 12 13 14 15 17 18 19 20 21 21 22 23 23 23 24 24 24 24 24 23 23 23 24 25 26 26 27 27 26 26 25 25 24 23 22 22 21 20 19 18 17 17 18 16 14 14 15 17 19 19 20 20 19 17 15 13 11
7 8 8 7 5 4 5 5 5 5 7 9 11 12 12 13 13 14 15 17 18 19 19 20 21 22 23 24 23 23 23 24 24 24 24 24 24 24 23 23 23 23 24 25 26 25 24 24 24 24 23 23 22 20 19 19 18 16 16 18 17 16 17 19 20 20 20 19 19 18 15 13 13 11
9 8 7 6 6 6 6 6 7 9 11 12 13 14 14 15 16 17 19 20 21 21 21 22 23 24 24 24 23 22 22 23 24 24 24 24 24 24 22 22 22 22 22 23 25 25 24 22 22 22 22 22 22 21 19 18 18 18 18 19 19 19 20 21 20 19 18 18 18 17 14 12 11 9
8 8 7 7 7 7 7 8 10 12 13 15 15 17 18 19 20 21 21 22 22 22 22 23 23 23 23 22 22 22 22 22 23 23 23 23 23 23 22 22 22 22 22 22 23 24 23 21 20 20 20 21 22 23 22 21 20 20 19 20 20 21 22 22 21 19 18 17 17 14 12 11 11 8
8 7 6 6 6 7 8 10 11 13 14 16 18 20 22 22 22 22 22 23 23 22 22 22 22 22 21 22 22 22 22 22 23 23 23 23 23 23 23 22 23 23 22 21 23 23 21 20 19 18 18 18 18 19 21 21 21 21 21 21 21 23 23 22 20 19 18 17 16 14 11 10 10 8
7 6 5 5 6 7 9 11 12 14 15 17 19 21 22 24 25 25 25 24 24 23 23 22 22 22 22 22 22 22 22 23 23 23 23 22 22 23 23 22 23 23 22 22 23 22 21 20 19 17 14 11 9 10 12 14 14 15 17 19 19 19 20 20 19 19 19 18 17 14 11 10 9 7
6 5 4 5 6 8 10 11 13 14 16 18 21 22 24 25 26 26 25 24 23 23 22 22 22 23 23 23 23 23 23 23 23 22 22 22 21 21 21 21 22 22 22 23 23 22 21 20 19 17 13 8 5 6 7 9 10 11 13 16 18 18 19 18 17 18 19 18 17 15 11 9 8 7
5 5 4 6 7 9 10 11 13 15 17 19 21 23 24 25 25 25 24 23 23 23 22 22 23 23 23 23 23 23 23 23 22 22 22 21 20 20 20 20 21 21 22 23 23 22 21 20 20 19 15 8 5 4 5 6 9 11 12 14 16 16 15 16 17 18 18 16 14 12 10 9 8 6
5 5 5 6 7 8 9 11 13 16 19 21 22 23 24 25 25 26 25 24 23 23 23 24 24 24 24 24 23 23 23 22 22 21 21 21 20 20 20 20 20 20 20 20 20 20 20 20 21 21 20 16 12 11 10 10 12 13 12 12 13 13 12 12 15 18 17 15 14 11 9 8 7 6
6 6 6 6 7 7 9 11 15 17 19 21 22 23 24 25 25 25 25 24 24 24 24 24 24 24 24 24 23 23 23 23 22 22 22 21 21 21 21 21 21 20 19 19 18 18 19 21 22 23 23 22 20 20 19 17 16 17 17 15 15 16 14 13 14 16 18 17 16 14 13 12 11 9
5 4 5 6 6 7 10 12 15 17 19 21 23 23 24 25 25 24 24 23 24 24 24 24 24 24 24 24 24 23 23 23 22 22 22 22 22 22 22 22 21 20 19 18 17 18 20 22 23 21 21 21 21 18 14 10 10 13 16 14 13 14 13 11 13 18 20 19 17 17 15 13 14 13
4 4 5 5 6 7 10 13 15 18 20 22 23 24 25 25 25 24 24 24 24 24 24 24 24 24 24 25 24 23 23 23 22 22 22 22 21 21 21 21 20 19 19 19 19 21 22 23 21 19 18 18 19 14 8 6 8 10 12 11 10 10 10 9 13 19 21 20 18 17 15 13 12 11
4 5 5 4 5 8 11 14 17 19 20 22 24 24 25 26 25 24 24 24 24 24 24 25 25 25 24 24 24 23 22 22 22 22 22 21 21 21 20 20 20 20 20 20 21 23 23 21 20 17 15 16 18 15 10 10 12 12 10 7 6 5 6 7 11 16 19 18 18 17 16 14 10 8
5 5 3 3 6 9 12 15 17 19 21 23 24 25 25 26 26 25 25 25 25 25 25 25 25 24 24 24 23 23 23 22 22 22 22 22 22 21 21 21 21 20 20 20 20 20 20 18 15 14 14 15 17 16 13 12 13 12 10 9 8 9 10 11 13 16 17 17 15 14 15 15 9 7
5 4 3 4 7 10 12 15 17 20 23 24 24 25 26 26 26 26 26 26 26 26 26 26 26 25 25 24 23 23 24 23 23 23 23 22 22 21 21 21 20 19 19 18 17 16 16 14 10 10 12 14 15 15 15 14 12 11 11 12 13 14 15 17 19 19 16 13 10 9 11 12 6 3
Wind_Direction
101 89 78 79 87 79 80 96 112 111 83 70 65 56 58 72 101 103 10 338 349 21 19 13 8 11 17 20 24 32 34 33 26 15 8 358 348 340 333 327 322 318 315 310 306 303 300 299 298 298 298 297 296 294 290 286 281 275 268 265 263 259 254 249 241 237 235 234 234 230 228 229 232 235
116 106 81 76 90 87 81 86 89 88 77 62 54 51 48 47 68 113 82 333 309 3 6 7 1 2 14 23 23 26 26 18 9 358 350 347 343 337 332 329 326 323 318 314 311 308 306 305 303 303 302 300 298 295 291 286 284 281 276 271 268 265 262 255 251 248 243 239 239 235 231 232 234 236
141 139 106 79 92 90 85 91 87 77 69 57 48 52 50 41 42 53 64 68 330 341 347 355 357 358 5 12 11 7 5 358 351 346 341 340 342 340 335 333 334 332 328 324 320 314 311 311 312 311 310 309 306 301 295 289 283 279 277 276 274 271 268 263 261 258 251 243 242 239 235 235 235 236
178 171 158 70 68 68 87 91 76 56 44 33 29 36 40 35 20 8 19 324 303 328 341 344 349 354 355 356 357 353 351 352 351 350 348 345 343 341 339 336 336 334 330 327 323 319 316 315 317 318 316 314 312 308 302 293 286 280 276 275 275 275 275 273 270 267 260 252 246 243 240 237 236 238
208 190 203 186 14 339 150 117 29 21 26 20 19 19 19 23 15 358 355 330 311 325 336 338 343 347 347 348 351 349 349 352 353 352 352 351 347 344 341 337 336 337 335 332 327 323 320 318 318 319 317 314 310 308 306 298 288 280 275 273 273 275 278 279 278 276 273 266 259 255 251 246 241 239
233 211 216 229 266 270 226 232 315 2 33 25 26 37 34 26 29 21 6 356 334 326 329 333 338 341 342 344 347 348 348 348 348 347 349 349 347 343 340 337 337 336 334 331 329 327 323 320 319 319 319 318 314 308 306 303 295 283 275 272 272 276 279 281 283 282 282 279 275 270 264 258 253 248
236 229 225 233 245 248 254 297 299 264 21 10 17 30 28 19 18 15 7 3 356 335 327 328 333 337 338 338 341 344 344 344 344 343 342 342 341 340 338 337 338 338 335 332 331 329 327 324 322 322 320 320 320 317 312 308 304 296 285 277 275 279 281 283 285 285 285 284 282 280 275 269 265 259
234 233 230 232 233 232 240 273 279 249 303 328 335 344 345 345 345 347 350 352 352 343 330 325 326 331 332 333 339 342 340 339 341 340 337 336 336 336 338 339 339 338 336 334 332 330 327 323 320 320 320 321 321 320 317 312 307 304 297 289 283 282 284 286 286 286 285 284 283 283 282 278 272 266
232 232 233 232 229 229 232 245 258 249 261 288 300 310 317 324 329 331 331 333 334 333 331 325 321 323 328 330 334 340 339 337 336 332 328 328 329 326 326 328 331 331 328 325 323 320 317 314 312 312 315 317 318 318 317 314 311 306 302 296 290 286 285 285 285 284 283 283 282 281 281 280 277 272
233 232 233 232 230 231 234 238 243 240 247 268 282 295 306 315 322 325 324 322 322 323 325 325 322 324 328 331 332 335 337 338 337 333 327 322 322 323 321 319 321 325 325 323 322 319 315 312 310 309 309 310 312 315 317 317 316 315 311 305 299 294 290 288 287 286 284 283 282 280 278 277 276 274
237 234 230 229 228 229 234 238 236 239 252 266 277 288 297 306 319 324 322 320 322 325 326 327 328 328 328 330 332 334 336 337 339 341 337 328 325 327 326 322 321 321 318 315 313 313 313 311 309 306 305 308 313 316 317 317 317 317 316 314 311 307 305 304 301 299 297 293 288 283 279 277 275 273
241 237 232 228 226 224 228 234 236 240 253 265 273 280 284 298 317 323 321 321 326 330 330 330 332 330 327 330 335 337 340 341 338 340 339 330 327 329 326 324 325 322 315 311 308 306 308 308 306 305 303 303 308 310 310 312 314 313 312 310 309 308 307 308 307 307 306 306 303 296 287 280 275 273
239 237 234 229 224 220 220 224 229 233 244 260 268 272 278 297 315 318 316 322 327 328 328 328 331 331 327 330 335 335 337 338 332 330 330 326 326 328 324 323 324 321 317 316 314 311 312 312 309 307 304 301 302 302 301 303 305 306 304 303 302 303 303 303 302 301 301 301 303 303 299 290 280 273
236 233 232 228 222 218 218 220 222 224 231 243 253 260 273 296 310 311 311 317 320 320 321 322 326 327 322 325 329 327 326 327 326 325 325 323 323 326 325 322 321 322 323 324 322 318 319 318 314 310 306 302 302 302 301 300 300 299 296 293 293 296 298 298 298 297 296 296 296 297 298 296 289 279
233 228 227 224 217 214 216 218 219 223 230 236 242 250 266 286 297 299 303 307 309 310 313 316 319 318 314 318 322 322 322 325 323 320 319 320 321 323 323 317 313 316 322 325 323 319 319 322 319 315 313 311 309 308 305 303 303 301 297 292 291 293 295 296 296 295 294 292 291 291 291 291 291 286
231 225 219 214 211 211 213 215 217 222 229 235 242 254 268 279 285 288 289 292 296 302 307 310 311 310 310 314 318 321 323 321 316 313 314 316 318 316 311 303 302 308 316 320 317 313 314 319 318 315 316 317 317 316 313 311 311 308 304 300 298 297 297 296 295 294 293 291 289 288 288 287 286 285
230 223 214 208 206 207 209 212 215 219 225 234 245 259 269 273 274 277 279 280 286 295 302 303 303 306 310 311 312 315 315 312 311 313 313 314 314 310 303 299 299 303 309 313 311 306 308 314 315 313 315 319 321 321 317 313 309 306 305 305 304 302 300 299 295 291 289 287 286 286 285 284 284 283
232 223 213 204 199 200 205 210 211 216 225 237 250 260 266 266 266 267 271 276 285 294 298 298 298 302 304 304 305 306 306 308 311 313 313 313 312 307 301 298 299 300 304 309 307 299 303 311 311 310 315 320 320 318 314 311 308 309 312 314 311 307 304 302 299 293 288 284 283 282 281 281 281 281
229 218 209 202 200 203 209 210 211 219 228 240 251 259 260 258 256 257 266 274 282 289 291 291 292 293 294 295 296 297 298 300 301 303 304 304 304 303 301 299 299 299 301 305 302 291 296 307 307 306 314 320 320 320 322 323 325 325 325 325 322 316 310 306 303 299 293 286 282 280 277 277 278 278
216 210 207 203 201 202 202 204 213 226 239 250 255 253 248 247 247 253 265 273 278 283 286 287 287 286 287 289 290 292 295 297 299 301 299 299 300 300 299 297 296 297 299 302 299 290 292 301 302 303 312 319 319 321 326 327 324 322 323 326 328 330 331 329 325 320 313 302 291 282 277 274 274 273
187 187 191 191 187 188 195 211 230 243 249 252 250 244 241 248 256 264 269 273 276 279 280 281 282 282 284 286 288 292 294 295 298 300 300 301 301 299 296 292 293 294 294 297 297 287 286 293 297 301 311 314 311 315 315 305 303 310 319 326 331 340 349 349 346 345 343 337 325 308 293 282 276 272
167 169 177 188 194 203 223 236 241 242 242 241 244 250 261 270 276 281 283 283 284 283 283 284 284 285 287 289 291 295 298 300 302 302 303 307 303 296 291 290 295 297 295 300 301 285 281 293 299 301 306 305 302 305 302 293 300 310 319 326 330 336 345 348 348 349 349 348 345 337 324 307 293 279
173 180 188 201 212 220 228 231 232 234 239 248 262 276 287 293 294 296 296 296 296 296 296 298 299 300 301 302 303 306 311 318 321 314 311 311 302 293 289 290 296 299 296 308 313 292 287 295 297 295 298 300 301 300 293 297 307 312 316 323 323 322 329 337 343 345 346 347 346 342 335 322 308 294
163 168 173 178 187 201 211 220 231 245 262 282 297 305 307 307 307 306 305 306 307 307 309 311 312 313 315 313 311 310 310 312 313 309 307 305 298 292 288 286 285 280 283 298 307 296 290 292 293 291 287 283 285 290 293 299 307 311 314 318 318 318 323 328 333 339 344 347 347 345 341 330 314 300
146 148 157 161 168 191 214 232 260 285 304 311 313 312 310 309 310 311 311 312 311 310 311 313 313 315 316 315 314 313 310 308 306 304 303 301 297 293 289 285 280 277 283 292 296 293 293 295 296 294 289 280 278 285 292 296 301 306 311 315 316 319 320 319 320 327 334 338 340 342 342 339 327 305
147 151 161 169 181 209 238 269 296 309 314 315 312 308 304 305 310 310 309 309 310 310 312 314 315 316 316 314 313 312 310 308 308 306 304 302 299 295 291 288 283 280 284 289 289 288 290 290 291 293 293 288 285 287 289 292 299 305 307 308 312 315 315 315 316 319 322 325 328 332 334 338 336 320
164 164 169 181 204 255 293 307 313 314 314 314 309 301 297 300 305 305 305 307 309 311 313 313 313 314 314 311 309 309 309 309 309 308 306 303 299 297 295 293 289 286 288 291 291 287 283 281 282 284 285 285 287 287 286 288 296 302 302 302 306 308 311 314 313 311 311 312 315 321 327 332 335 331
166 163 165 177 310 324 320 315 314 317 317 315 308 298 293 296 302 307 311 314 314 312 310 309 308 309 309 306 303 304 306 307 306 304 303 301 298 297 296 295 293 291 291 292 292 290 285 280 279 279 279 278 279 279 281 285 289 293 296 299 301 303 308 310 308 307 307 304 305 314 323 325 327 329
140 119 64 26 10 345 329 327 336 344 339 330 319 308 306 310 314 317 319 319 314 308 306 305 305 305 305 304 303 303 303 302 301 301 301 298 296 295 294 293 292 291 290 290 291 291 288 282 280 280 278 275 273 273 277 281 283 286 290 293 296 301 305 307 308 310 309 305 305 309 314 316 317 318
74 60 85 113 119 109 76 43 24 11 359 348 337 329 325 324 323 323 323 320 313 308 308 308 306 305 306 305 303 301 299 297 297 299 298 296 294 294 294 292 290 288 287 286 286 286 286 285 283 282 278 275 272 271 273 276 277 279 283 286 291 299 305 310 314 313 311 308 303 299 301 304 306 308
100 114 119 116 106 83 52 34 22 11 359 348 340 334 330 327 325 322 320 317 314 312 311 309 307 307 307 304 302 300 297 295 296 296 294 293 293 295 295 292 288 287 285 284 284 283 282 283 283 282 279 275 272 271 272 273 272 273 276 279 283 290 295 302 304 302 305 307 299 292 294 297 300 304
119 121 114 103 86 56 30 18 5 352 344 338 334 330 327 325 322 322 322 320 319 318 315 311 309 308 306 304 301 299 296 294 294 294 294 292 292 295 294 289 285 286 286 286 285 284 281 280 281 280 277 275 273 274 275 274 272 272 275 278 281 284 288 294 296 295 298 298 291 287 290 294 297 303
119 115 102 81 57 34 20 9 360 352 346 340 336 333 332 330 329 330 329 326 324 321 317 312 308 306 304 302 299 296 293 292 292 294 293 292 291 291 287 281 279 281 282 284 285 285 284 282 281 279 276 275 274 274 273 272 272 273 273 276 279 282 285 288 289 289 288 285 279 279 285 289 292 297
110 97 79 57 40 28 18 9 2 356 351 347 343 340 338 335 333 331 328 325 322 319 313 308 304 301 299 297 296 293 290 289 291 291 290 288 286 283 278 275 276 277 277 278 281 283 285 284 282 279 277 274 273 271 267 264 266 269 271 272 274 276 280 284 281 276 275 275 270 269 275 280 283 287
100 79 62 50 38 26 16 8 2 358 354 350 346 341 336 333 330 326 323 322 320 315 310 306 302 298 296 294 293 291 289 288 288 288 286 284 281 276 273 272 274 276 276 275 277 280 282 282 280 278 276 273 271 272 268 262 260 262 264 267 270 272 275 278 274 267 265 264 257 252 256 263 269 276
95 75 62 56 41 25 16 9 4 359 354 348 344 339 334 330 328 324 321 320 317 312 308 305 302 299 296 293 291 289 288 287 286 285 283 281 277 275 273 271 272 274 274 273 274 277 278 276 273 271 271 270 267 270 273 269 261 256 256 261 268 272 275 278 273 262 256 251 242 237 241 249 254 258
101 88 76 58 40 26 15 7 1 355 349 344 340 337 333 329 325 322 321 318 314 309 306 304 301 298 296 293 291 289 287 285 283 281 280 279 277 274 272 271 271 272 272 272 274 275 272 270 266 261 260 264 263 262 271 272 263 255 252 256 263 270 275 277 269 252 243 239 232 228 229 238 244 238
108 100 82 56 37 21 9 3 357 350 343 338 335 332 330 327 324 322 320 317 313 309 307 303 300 298 296 294 291 288 286 284 281 279 278 278 276 273 271 271 271 271 271 272 272 271 268 264 259 254 252 254 257 259 262 260 254 251 250 252 259 270 278 273 255 238 229 222 217 216 220 227 229 219
113 99 75 49 29 14 5 360 352 344 338 335 333 332 330 326 323 321 319 315 312 309 306 303 301 299 298 295 292 289 287 284 282 280 279 278 276 274 273 272 272 272 272 271 269 268 264 258 253 249 246 245 248 255 257 256 258 260 256 252 259 276 293 284 253 229 213 202 195 189 189 196 199 194
108 89 61 39 26 15 3 354 348 343 340 339 338 335 329 322 318 316 314 311 309 308 306 304 303 302 300 298 296 293 289 285 283 282 280 279 277 276 274 273 273 273 271 269 268 266 260 255 255 255 252 252 257 262 262 261 264 267 265 261 261 267 278 283 258 222 199 189 183 172 163 163 161 159
97 77 56 41 29 12 357 351 351 350 349 346 341 336 329 321 314 312 312 311 311 311 309 308 307 305 303 302 300 295 290 286 285 283 281 280 279 277 276 275 273 271 269 266 264 264 263 266 270 270 266 264 263 261 259 255 256 264 267 269 268 261 262 272 258 228 204 188 173 157 149 151 151 149
90 81 68 50 27 5 357 359 359 355 350 345 340 336 331 323 316 315 317 318 318 317 314 312 311 309 306 304 302 297 291 287 286 285 283 281 279 277 277 274 270 268 267 265 266 269 273 278 280 276 270 262 251 243 238 232 236 252 262 265 264 256 252 256 247 228 212 198 183 164 151 146 143 143
95 89 77 51 20 9 8 8 3 355 348 344 340 336 331 324 320 321 322 322 322 320 318 316 315 312 309 307 305 301 296 291 289 287 285 283 279 277 275 273 271 270 268 267 270 275 278 281 280 271 261 248 237 230 226 229 233 240 242 231 222 223 224 223 218 209 199 193 191 186 175 166 162 172
102 98 88 48 22 16 13 8 360 352 348 344 340 335 331 326 324 326 328 326 324 323 323 321 319 317 315 313 312 309 305 300 297 292 289 286 283 280 277 276 275 274 271 270 273 276 279 281 277 264 248 236 229 224 222 225 230 229 217 192 169 158 155 157 166 172 171 173 181 191 190 184 186 204
125 123 90 38 20 14 8 360 353 350 349 346 340 336 333 330 329 330 332 332 330 328 328 327 326 325 324 322 318 315 311 309 305 300 295 292 288 284 282 281 278 276 276 275 273 274 278 280 273 256 241 232 227 225 225 225 223 211 189 167 152 149 147 145 145 144 141 145 159 181 192 193 199 214